Showing default

FLOCK 4G 3, 62639

Orbit data source: Space-Track

FLOCK 4G 3, 62639 is a payload satellite owned by Planet (US) in SSO that was launched on Tue, 14 Jan 2025 UTC via an FALCON 9 launch vehicle from the Air Force Western Test Range (AFWTR). Payload-class satellites include a variety of spacecraft equipped with specific instruments for various scientific and technological missions. These include communications satellites like Starlink; space stations such as the ISS; scientific satellites like the Hubble; Earth observation satellites from companies like Planet Labs, Umbra, and HawkEye 360; GPS; miniature CubeSats for education and research; and military/defense satellites.

Loading next visibility...
Identifier
62639, 2025-009AG
Orbit
SSO
Last TLE update
15 hours ago
Origin
Manufacturer
Planet
Mission
Operational Commercial Imaging
Bus & Motor
CUBESAT 3U, Unknown motor
Mass
5.7 kg wet, 5.7 kg dry
Launch date (UTC)
2025-01-14 (4 months ago)
Launch vehicle
FALCON 9
Launch site
Air Force Western Test Range (AFWTR)
Object type
Payload
Rocket body
Debris
Shape & HBR
Box + 2 Pan, 0.3 m
Radar Cross Section
0.035 m², Medium (>0.1 m² and < 1m²)

Expand to show TLE details & history

TLE from 15 hours ago
0 FLOCK 4G 3
1 62639U 25009AG  25128.68137300  .00007839  00000-0  36341-3 0  9995
2 62639  97.4336 209.6100 0001422 277.6939  82.4135 15.20340308 17276
Epoch: 2025-05-08T16:21Z
Definitive object data (Epoch: 2025-05-08T16:21:10.627Z)
Latitude
0.00002°
Longitude
97.56734°
Altitude
507.774 km
Speed
7.61 km/s
True Right ascension
13h 58m 26s
True Declination
0° 00' 00"
Sunlit
Object was in full shadow at TLE epoch
Visualization TLE readout
Latitude
46.55755°
Longitude
-73.94996°
Altitude
512.793 km
Speed
7.612 km/s
Apparent Right ascension
02h 55m 36s
Apparent Declination
5° 24' 51"
Sunlit
Object is in daylight
Visualization observer readout
Local Sidereal Time
15:18:06
Azimuth
7.848° NNE
Elevation
-44.374°
Doppler factor
1
Orbital elements
Apogee altitude
502.758 km
Perigee altitude
500.802 km
Semi-major axis
6,879.917 km
Eccentricity
0.0001422
Inclination
97.4336°
RAAN
209.61°
Arg. of periapsis
277.6939°
True anomaly
82.42965°
Mean anomaly
82.4135°
Eccentric anomaly
82.42158°
Mean motion
3.80337 °/min
BSTAR
0.00036341
Orbital period
94.65 mins
Loading maneuver chart data...
Loading SW <> Apogee altitude chart data...
Loading historical data...
Loading historical data...
Loading historical data...
Loading historical data...
Loading historical data...
Loading historical data...
Loading historical data...

FLOCK 4G 3 Visibility forecast

Observer location: undefined°, undefined°

Span
Click to sort rows by Start time (UTC) header in descending order
Start Az.
Max El. time (UTC)
Max El. Az.
Max El.
End time (UTC)
End Az.
6 mins2025-05-09 18:11:09.389Z13.797° NNE2025-05-09 18:14:09.389Z43.732° NE44.324°2025-05-09 18:17:09.389Z189.974° SSW
5 mins2025-05-10 04:50:09.389Z120.108° SE2025-05-10 04:52:09.389Z68.628° E26.904°2025-05-10 04:55:09.389Z10.686° NNE
|